COSMOS 256

导读

COSMOS 256是苏联(CIS)于1968年11月30日08:00发射的人造卫星,属于苏联“宇宙”系列卫星家族。作为冷战时期苏联航天活动的产物,该卫星承载着特定太空任务,延续了“宇宙”系列探索空间技术、开展科研试验的定位,是苏联航天体系早期发展的见证者,在人类航天探索进程中留下了标志性印记。

基本信息
目录编号:
3576
目录名称:
COSMOS 256
国际标识:
1968-106A
轨道中心:
EARTH
卫星名称:
COSMOS 256
卫星全名:
--
卫星状态:
在轨 (已飞行21107 天)
发射日期:
1968-11-30 UTC
国别 :
俄罗斯(独联体) (CIS)
星等 :
--
该卫星已列入 空间交会检测服务 Space Conjunction Data Service (SCDS) ,当前飞行风险评估等级: 高风险
轨道信息
数据来源 国际轨道数据 AOE轨道数据
星历时间 2026-09-14T05:39:46+0800
5小时前
查看轨道信息
2026-09-13T02:00:00+0800
1天前
查看轨道信息
半长轴 7574.783km 7574.788km
偏心率 0.0034436 0.0034444
轨道倾角 74.050° 74.051°
近地点辐角 302.524° 304.444°
升交点赤经 318.225° 319.952°
平近点角 231.722° 167.466°
近地点 1170.561km 1170.56km
远地点 1222.731km 1222.742km
周期 109.349分钟 109.349分钟
每日圈数 13.168841 13.168827
详细信息
使用方式:
暂无
2D轨道图
3D轨道图
轨道高度分析图
轨道倾角分析图
轨道综合分析图
查看轨道综合分析图
交会数据列表
事件ID 空间交会对象 最接近时刻(TCA) 交会距离 交会风险概率(CRP) 交会风险指数(CRI) 操作
CDM_260916-020200-357606-159823
2026-09-16T
02:02:55+0000
0.263 km
中距离
4.19451E-4 高风险 0.87
CDM_260908-124200-357604-708524
2026-09-08T
12:42:38+0000
0.958 km
远距离
2.000491E-5 中风险 0.61
与全量物体交会距离演化趋势 订阅飞行安全评估服务
与全量物体交会风险概率演化趋势 订阅飞行安全评估服务